STARLINK-3760, 52298

Orbit data source: Space-Track

STARLINK-3760, 52298 is a payload satellite owned by SpaceX/Seattle (US) in LEO that was launched on Thu, 21 Apr 2022 UTC via an FALCON 9 launch vehicle from the Air Force Eastern Test Range (AFETR). Payload-class satellites include a variety of spacecraft equipped with specific instruments for various scientific and technological missions. These include communications satellites like Starlink; space stations such as the ISS; scientific satellites like the Hubble; Earth observation satellites from companies like Planet Labs, Umbra, and HawkEye 360; GPS; miniature CubeSats for education and research; and military/defense satellites.

Loading next visibility...
Identifier
52298, 2022-041AP
Orbit
LEO
Country
Flag of USUS
Related business
Manufacturer
SpaceX/Seattle
Mission
Operational Commercial Communications
Bus & Motor
STARLINK, Unknown motor
Mass
297 kg wet, ~275 kg dry
Launch date (UTC)
2022-04-21 (4 years ago)
Launch vehicle
FALCON 9
Launch site
Air Force Eastern Test Range (AFETR)
Object type
Payload
Rocket body
Debris
Shape & HBR
Box + 1 Pan, 10.1 m
Radar Cross Section
11.087 m², Large (>1 m²)

Expand to show TLE details & history
Last TLE update: 1 day ago

TLE from 1 day ago
0 STARLINK-3760
1 52298U 22041AP  26174.74474357 -.00006355  00000-0 -38133-3 0  9998
2 52298  53.1599 342.4982 0001199  68.3766 291.7353 15.08858174230527
Epoch: 2026-06-23T17:52Z
TLE epoch observation values (Epoch: 2026-06-23T17:52:25.844Z)
Latitude
-0.00003°
Longitude
162.47859°
Altitude
540.272 km
Speed
7.594 km/s
True Right ascension
22h 49m 59s
True Declination
0° 00' 00"
Sunlit
Object was in daylight at epoch
Visualization orbit readout
Latitude
Unknown
Longitude
Unknown
Altitude
Unknown
Speed
Unknown
Apparent Right ascension
Unknown
Apparent Declination
Unknown
Sunlit
N/A
Visualization observer readout
Local Sidereal Time
08:51:56
Azimuth
Unknown
Elevation
Unknown
Doppler factor
Unknown
Orbital elements
Apogee altitude
540.771 km
Perigee altitude
539.112 km
Semi-major axis
6,918.079 km
Eccentricity
0.00012
Inclination
53.1599°
RAAN
342.4982°
Arg. of periapsis
68.3766°
True anomaly
291.72254°
Mean anomaly
291.7353°
Eccentric anomaly
291.72892°
Mean motion
3.77194 °/min
Orbital period
95.44 mins
BSTAR
-0.00038133
Loading maneuver chart data...
Computing Atmospheric mass density...
Loading historical data...
Loading historical data...
Loading historical data...
Loading historical data...
Loading historical data...
Loading historical data...
Loading historical data...

Documentation

Showing up to 5 results
|